Inquirer Daily News

Weather

Get conditions and forecasts for any City, State, ZIP code or Country:  
Trenton, NJ
on Monday, December 3, 2012

Monday
Previous Day Next Day
Daily Summary
 ActualAverageRecord
Temperature
Mean Temperature °F 40°F  
Max Temperature 65°F 47°F 69°F (1998)
Min Temperature 44°F 32°F 11°F (1976)
Degree Days
Heating Degree Days 10 25  
Month to date heating degree days 54 75  
Since 1 July heating degree days 1061 1051  
Cooling Degree Days 0 0  
Month to date cooling degree days 0 0  
Year to date cooling degree days 1234 965  
Growing Degree Days4 (Base °F )  
Moisture
Dew Point 46°F   
Average Humidity 76    
Maximum Humidity 100    
Minimum Humidity 52    
Precipitation
Precipitation 0.00 in 0.14 in 1.38 in (1901)
Month to date precipitation 0.07 0.44  
Year to date precipitation 33.30 43.18  
Wind
Wind Speed 2 mph   
Max Wind Speed 10 mph   
Max Gust Speed 14 mph   
Visibility 4 miles   
Events Fog   

Key: T is trace of precipitation, MM is missing value
Source: NWS Daily Summary
Time(EST)TemperatureDew PointHumidity Pressure Visibility Wind DirectionWind SpeedGust SpeedPrecipitationEvents Conditions
12:24 AM 48.2°F 46.4°F 93% 30.12 in 2.5 miles Calm Calm - N/A   Overcast
12:35 AM 48.2°F 48.2°F 100% 30.12 in 1.5 miles Calm Calm - N/A   Overcast
12:48 AM 48.2°F 46.4°F 93% 30.12 in 2.5 miles Calm Calm - N/A   Overcast
12:53 AM 48.9°F 48.0°F 97% 30.11 in 2.5 miles Calm Calm - N/A   Overcast
1:06 AM 50.0°F 48.2°F 94% 30.12 in 3.0 miles WSW 3.5 mph - N/A   Overcast
1:19 AM 50.0°F 48.2°F 94% 30.13 in 2.5 miles Calm Calm - N/A   Overcast
1:43 AM 48.2°F 46.4°F 93% 30.13 in 1.8 miles Calm Calm - N/A   Overcast
1:50 AM 48.2°F 46.4°F 93% 30.14 in 2.0 miles Calm Calm - N/A   Overcast
1:53 AM 48.9°F 46.9°F 93% 30.12 in 2.0 miles Calm Calm - N/A   Overcast
2:19 AM 46.4°F 46.4°F 100% 30.13 in 0.8 miles WSW 3.5 mph - N/A   Scattered Clouds
2:26 AM 46.4°F 44.6°F 93% 30.14 in 0.2 miles WSW 4.6 mph - N/A Fog Fog
2:39 AM 48.2°F 46.4°F 93% 30.14 in 2.0 miles West 3.5 mph - N/A   Mostly Cloudy
2:53 AM 48.0°F 48.0°F 100% 30.12 in 2.5 miles WSW 4.6 mph - N/A   Overcast
3:04 AM 46.4°F 46.4°F 100% 30.13 in 1.5 miles WSW 3.5 mph - N/A   Overcast
3:13 AM 48.2°F 46.4°F 93% 30.14 in 3.0 miles West 3.5 mph - N/A   Overcast
3:53 AM 48.0°F 46.0°F 93% 30.13 in 3.0 miles North 3.5 mph - N/A   Clear
4:05 AM 46.4°F 46.4°F 100% 30.15 in 2.0 miles Calm Calm - N/A   Partly Cloudy
4:14 AM 46.4°F 44.6°F 93% 30.15 in 0.8 miles Calm Calm - N/A   Scattered Clouds
4:38 AM 46.4°F 44.6°F 93% 30.15 in 2.0 miles Calm Calm - N/A   Overcast
4:50 AM 46.4°F 46.4°F 100% 30.15 in 1.5 miles Calm Calm - N/A   Overcast
4:53 AM 46.0°F 45.0°F 96% 30.14 in 1.2 miles Calm Calm - N/A   Overcast
5:09 AM 46.4°F 46.4°F 100% 30.15 in 3.0 miles Calm Calm - N/A   Overcast
5:53 AM 46.9°F 45.0°F 93% 30.15 in 4.0 miles Calm Calm - N/A   Overcast
6:03 AM 46.4°F 44.6°F 93% 30.17 in 1.8 miles Calm Calm - N/A   Mostly Cloudy
6:12 AM 46.4°F 44.6°F 93% 30.18 in 0.8 miles Calm Calm - N/A   Scattered Clouds
6:18 AM 46.4°F 44.6°F 93% 30.18 in 2.0 miles Calm Calm - N/A   Mostly Cloudy
6:53 AM 48.9°F 45.0°F 86% 30.18 in 4.0 miles NW 4.6 mph - N/A   Mostly Cloudy
7:15 AM 46.4°F 44.6°F 93% 30.20 in 2.5 miles NW 4.6 mph - N/A   Clear
7:41 AM 44.6°F 42.8°F 93% 30.20 in 1.5 miles Calm Calm - N/A   Clear
8:53 AM 50.0°F 48.0°F 93% 30.20 in 3.0 miles WSW 3.5 mph - N/A   Clear
10:53 AM 60.1°F 51.1°F 72% 30.21 in 7.0 miles Variable 3.5 mph - N/A   Clear
11:53 AM 62.1°F 50.0°F 65% 30.19 in 10.0 miles Variable 4.6 mph - N/A   Clear
12:53 PM 63.0°F 48.0°F 58% 30.17 in 10.0 miles NW 9.2 mph - N/A   Clear
2:53 PM 64.0°F 46.9°F 54% 30.17 in 10.0 miles North 6.9 mph - N/A   Clear
3:53 PM 63.0°F 48.0°F 58% 30.18 in 10.0 miles Calm Calm - N/A   Clear
4:53 PM 59.0°F 48.0°F 67% 30.19 in 10.0 miles Calm Calm - N/A   Scattered Clouds
5:53 PM 55.0°F 46.9°F 74% 30.21 in 10.0 miles Calm Calm - N/A   Partly Cloudy
6:53 PM 55.0°F 46.9°F 74% 30.23 in 10.0 miles Calm Calm - N/A   Mostly Cloudy
7:53 PM 55.0°F 46.9°F 74% 30.24 in 10.0 miles Calm Calm - N/A   Overcast
8:53 PM 55.0°F 46.9°F 74% 30.23 in 10.0 miles Calm Calm - N/A   Overcast
9:53 PM 51.1°F 46.0°F 83% 30.22 in 10.0 miles SSE 3.5 mph - N/A   Partly Cloudy
10:53 PM 51.1°F 46.0°F 83% 30.24 in 9.0 miles Calm Calm - N/A   Mostly Cloudy
11:53 PM 50.0°F 45.0°F 83% 30.24 in 9.0 miles Calm Calm - N/A   Mostly Cloudy
Astronomy
Sunrise:07:05 AM (EST) Moon Rise:09:17 PM (EST)12/3
Sunset:04:33 PM (EST) Moon Set:10:26 AM (EST)12/3
Moon Phase
Dec. 03 Dec. 06 Dec. 13 Dec. 20 Dec. 28

Copyright © 2014 The Weather Underground, Inc.